Spokane Felts, WA
on Friday, January 18, 2013

Friday
Previous Day Next Day
Daily Summary
 ActualAverageRecord
Temperature
Mean Temperature °F 32°F  
Max Temperature 27°F 37°F 48°F (1999)
Min Temperature 17°F 27°F 17°F (2013)
Degree Days
Heating Degree Days 43 33  
Month to date heating degree days 685 619  
Since 1 July heating degree days 2853 3288  
Cooling Degree Days 0 0  
Month to date cooling degree days 0 0  
Year to date cooling degree days 0 0  
Moisture
Dew Point 16°F   
Average Humidity 84    
Maximum Humidity 92    
Minimum Humidity 75    
Precipitation
Precipitation 0.00 in 0.06 in 0.18 in (2012)
Month to date precipitation 0.92 1.20  
Year to date precipitation 0.92 1.20  
Wind
Wind Speed 1 mph   
Max Wind Speed 7 mph   
Max Gust Speed 7 mph   
Visibility 4 miles   
Events Fog   

Key: T is trace of precipitation, MM is missing value
Source: NWS Daily Summary
Time(PST)TemperatureDew PointHumidity Pressure Visibility Wind DirectionWind SpeedGust SpeedPrecipitationEvents Conditions
12:53 AM 19.9°F 15.1°F 81% 30.43 in 6.0 miles Calm Calm - N/A   Haze
1:53 AM 21.0°F 16.0°F 81% 30.43 in 5.0 miles Calm Calm - N/A   Haze
2:12 AM 19.4°F 15.8°F 86% 30.35 in 6.0 miles Calm Calm - N/A   Partly Cloudy
2:45 AM 19.4°F 15.8°F 86% 30.35 in 6.0 miles Calm Calm - N/A   Mostly Cloudy
2:53 AM 19.9°F 16.0°F 85% 30.43 in 5.0 miles Calm Calm - N/A   Mostly Cloudy
3:53 AM 19.9°F 15.1°F 81% 30.42 in 6.0 miles Calm Calm - N/A   Haze
4:11 AM 19.4°F 15.8°F 86% 30.33 in 6.0 miles Calm Calm - N/A   Scattered Clouds
4:53 AM 19.9°F 16.0°F 85% 30.40 in 6.0 miles Calm Calm - N/A   Partly Cloudy
5:53 AM 19.9°F 16.0°F 85% 30.38 in 7.0 miles Calm Calm - N/A   Partly Cloudy
6:53 AM 19.9°F 15.1°F 81% 30.39 in 6.0 miles Calm Calm - N/A   Haze
6:59 AM 19.4°F 15.8°F 86% 30.30 in 6.0 miles Calm Calm - N/A   Haze
7:06 AM 19.4°F 15.8°F 86% 30.30 in 7.0 miles Calm Calm - N/A   Scattered Clouds
7:53 AM 19.9°F 16.0°F 85% 30.38 in 4.0 miles Calm Calm - N/A   Scattered Clouds
8:53 AM 21.0°F 17.1°F 85% 30.38 in 4.0 miles ENE 3.5 mph - N/A   Mostly Cloudy
9:25 AM 21.2°F 17.6°F 86% 30.30 in 4.0 miles Calm Calm - N/A   Partly Cloudy
9:53 AM 21.9°F 18.0°F 85% 30.39 in 4.0 miles Calm Calm - N/A   Scattered Clouds
10:53 AM 21.9°F 18.0°F 85% 30.39 in 4.0 miles Calm Calm - N/A   Clear
11:53 AM 23.0°F 19.0°F 85% 30.36 in 4.0 miles Calm Calm - N/A   Mostly Cloudy
12:53 PM 24.1°F 19.0°F 81% 30.35 in 10.0 miles Calm Calm - N/A   Scattered Clouds
1:53 PM 26.1°F 19.9°F 78% 30.32 in 8.0 miles ENE 4.6 mph - N/A   Scattered Clouds
2:53 PM 26.1°F 19.9°F 78% 30.33 in 5.0 miles Calm Calm - N/A   Haze
3:53 PM 25.0°F 19.9°F 81% 30.35 in 4.0 miles Calm Calm - N/A   Haze
4:53 PM 24.1°F 19.9°F 84% 30.36 in 6.0 miles Calm Calm - N/A   Scattered Clouds
5:53 PM 23.0°F 18.0°F 81% 30.35 in 6.0 miles Calm Calm - N/A   Haze
6:53 PM 21.0°F 17.1°F 85% 30.37 in 4.0 miles Calm Calm - N/A   Scattered Clouds
7:09 PM 19.4°F 15.8°F 86% 30.29 in 1.5 miles Calm Calm - N/A   Clear
7:16 PM 19.4°F 15.8°F 86% 30.29 in 4.0 miles Calm Calm - N/A   Clear
7:53 PM 19.0°F 16.0°F 88% 30.38 in 4.0 miles Calm Calm - N/A   Clear
7:57 PM 19.4°F 15.8°F 86% 30.29 in 2.5 miles Calm Calm - N/A   Partly Cloudy
8:11 PM 19.4°F 14.0°F 80% 30.29 in 1.5 miles Calm Calm - N/A   Haze
8:22 PM 19.4°F 15.8°F 86% 30.29 in 3.0 miles NE 3.5 mph - N/A   Partly Cloudy
8:53 PM 18.0°F 15.1°F 88% 30.40 in 4.0 miles Calm Calm - N/A   Mostly Cloudy
9:03 PM 19.4°F 15.8°F 86% 30.31 in 1.5 miles Calm Calm - N/A   Overcast
9:07 PM 19.4°F 15.8°F 86% 30.31 in 0.5 miles Calm Calm - N/A Fog Light Freezing Fog
9:19 PM 19.4°F 15.8°F 86% 30.32 in 1.2 miles ENE 4.6 mph - N/A   Overcast
9:22 PM 19.4°F 15.8°F 86% 30.32 in 2.5 miles ENE 5.8 mph - N/A   Overcast
9:29 PM 19.4°F 15.8°F 86% 30.32 in 4.0 miles NNE 3.5 mph - N/A   Overcast
9:53 PM 19.0°F 15.1°F 85% 30.40 in 3.0 miles East 3.5 mph - N/A   Overcast
10:01 PM 17.6°F 14.0°F 86% 30.32 in 2.0 miles East 3.5 mph - N/A   Mostly Cloudy
10:22 PM 19.4°F 14.0°F 80% 30.32 in 3.0 miles Calm Calm - N/A   Haze
10:36 PM 17.6°F 14.0°F 86% 30.32 in 3.0 miles NE 3.5 mph - N/A   Scattered Clouds
10:44 PM 17.6°F 14.0°F 86% 30.32 in 4.0 miles NE 3.5 mph - N/A   Mostly Cloudy
10:53 PM 18.0°F 12.9°F 81% 30.42 in 4.0 miles ENE 3.5 mph - N/A   Haze
11:38 PM 17.6°F 14.0°F 86% 30.34 in 1.8 miles NE 3.5 mph - N/A   Overcast
11:50 PM 19.4°F 15.8°F 86% 30.34 in 3.0 miles Calm Calm - N/A   Mostly Cloudy
11:53 PM 19.0°F 15.1°F 85% 30.43 in 4.0 miles Calm Calm - N/A   Mostly Cloudy
Moon Phase
Jan. 18 Jan. 18 Jan. 26 Feb. 03 Feb. 10
Sunrise:07:30 AM (PST) Moon Rise:10:35 AM (PST)1/18
Sunset:04:29 PM (PST) Moon Set:No Moon Set/

Copyright © 2014 The Weather Underground, Inc.